Theta_e
359 358 359 358 360 362 362 364 367 367 365 364 364 363 365 365 366 364 363 362 362 361 363 360 361 366 361 358 357 356 351 352 345 347 350 351 353 355 361 363 364 360 357
356 358 359 360 360 358 360 361 366 369 364 365 367 364 363 364 364 365 363 360 360 359 361 361 361 356 364 364 360 359 359 356 353 348 354 356 356 362 365 364 361 356 356
358 357 358 359 358 360 359 363 362 366 364 363 366 365 365 363 364 364 362 362 361 359 362 362 362 362 361 359 362 360 357 358 357 352 350 352 352 353 354 355 352 360 355
356 348 352 359 364 362 365 365 365 364 367 365 360 358 362 362 362 363 362 361 360 360 363 363 361 361 359 361 358 360 357 358 356 354 350 350 351 357 358 350 349 356 351
347 353 349 350 355 364 360 366 365 365 363 364 362 359 363 361 344 343 360 360 359 359 363 362 360 360 351 351 357 358 359 357 354 352 348 348 348 351 351 353 350 352 350
346 348 348 349 352 356 358 359 362 363 366 364 362 363 359 341 325 330 341 355 356 357 359 362 363 356 352 343 343 342 347 354 353 353 351 346 347 350 352 354 353 350 347
343 345 345 345 346 348 357 360 357 358 359 362 362 360 340 333 326 324 333 357 361 359 360 361 356 352 342 347 351 338 339 338 339 350 350 351 351 354 356 353 353 352 351
343 344 346 344 343 344 351 353 354 357 355 355 356 345 338 325 317 319 327 350 358 360 355 355 358 341 332 332 349 355 358 359 352 353 355 357 359 360 357 355 354 354 354
343 344 345 346 343 341 339 342 344 346 341 340 342 338 330 320 313 316 333 361 351 351 348 341 346 337 322 321 343 345 350 347 340 333 332 332 332 333 337 349 351 349 346
337 341 344 345 342 340 340 341 342 339 334 334 329 325 321 320 312 313 329 346 353 354 347 331 320 323 316 316 334 338 340 336 334 335 338 342 344 351 340 353 354 347 346
330 334 338 343 343 341 339 340 336 335 333 329 327 323 322 319 313 310 311 322 324 332 337 332 326 316 314 313 312 337 332 325 330 334 338 344 346 349 349 355 355 351 346
326 329 331 337 339 338 340 341 339 336 334 328 324 320 319 316 312 310 309 311 315 331 324 322 325 311 310 310 316 319 317 319 332 339 339 338 338 336 339 342 348 351 353
321 321 326 331 336 337 338 336 334 339 333 331 330 327 323 323 318 310 309 311 313 318 320 317 313 310 309 319 319 318 318 333 335 335 333 331 331 332 337 334 336 340 337
320 319 321 323 324 319 326 323 317 310 315 334 334 332 324 323 312 308 307 311 313 314 310 314 318 315 314 317 322 328 333 330 329 326 325 325 327 328 327 329 326 324 324
321 322 322 320 322 310 302 302 304 296 297 311 310 309 311 314 300 297 296 301 304 304 301 324 321 321 319 318 320 321 322 322 318 319 320 321 321 321 321 323 322 323 322
322 321 321 319 321 317 312 303 297 296 296 294 295 303 300 297 296 295 294 294 295 297 311 322 318 317 314 314 315 313 316 316 315 316 315 315 313 313 314 317 319 318 318
323 316 318 315 322 316 314 311 303 297 297 295 294 295 295 295 294 294 293 294 296 298 310 316 316 315 314 314 313 312 311 314 318 314 312 313 313 313 311 311 311 311 310
316 307 314 318 319 319 321 318 313 306 305 301 296 297 295 294 294 294 294 296 308 307 312 310 310 310 310 310 309 309 309 310 308 310 310 310 310 309 307 307 307 306 306
313 312 313 318 311 309 316 317 312 316 314 307 301 296 297 296 297 295 296 313 311 308 309 308 308 307 307 307 307 307 307 306 306 306 305 305 305 303 302 302 302 302 302
311 308 311 313 308 309 311 310 311 314 315 311 308 307 305 303 307 310 311 311 309 307 307 307 307 306 306 305 305 304 304 303 303 302 302 302 301 301 299 299 299 299 300
310 308 309 306 308 309 310 309 310 310 309 309 304 299 293 300 309 308 307 307 306 305 306 305 306 305 305 304 303 302 301 301 301 300 300 299 298 297 298 298 298 298 298
310 307 304 305 308 311 309 310 309 309 309 306 303 300 298 301 308 307 308 307 306 307 306 307 304 303 303 302 301 300 299 299 299 298 297 296 296 296 296 295 294 294 295
308 307 305 305 307 307 307 309 307 308 307 309 306 303 302 306 306 306 306 305 306 306 306 305 304 303 303 301 301 301 298 297 296 295 294 293 293 293 293 292 292 291 292
309 308 307 305 307 306 306 305 306 302 306 306 306 306 306 307 306 306 306 305 304 304 304 303 302 300 301 300 300 299 298 294 294 293 292 291 291 291 291 291 291 291 291
310 308 307 307 306 306 306 305 306 307 306 307 306 306 306 307 307 306 307 305 305 304 303 302 302 301 299 298 297 297 290 287 291 289 291 291 290 290 290 290 290 290 290
311 309 307 306 307 307 306 306 306 306 305 305 306 307 308 307 308 307 307 306 305 304 304 304 302 300 299 298 297 290 287 286 289 286 289 290 290 290 290 291 292 292 292
Wind_Speed
13 12 11 9 9 7 5 4 4 5 3 5 5 6 6 5 5 5 5 5 3 4 4 4 5 2 3 4 5 5 4 3 3 5 3 6 8 7 5 4 5 7 2
11 13 12 12 11 10 7 8 5 3 3 5 5 5 6 6 6 4 5 5 6 6 5 5 5 4 2 4 4 5 5 5 3 6 5 4 5 5 4 5 4 6 6
10 11 8 7 9 8 9 6 7 5 5 4 4 5 4 5 4 4 6 6 6 5 5 5 5 5 4 3 4 4 4 3 3 3 5 3 4 4 3 3 3 5 5
8 8 10 8 3 4 4 6 6 7 5 5 5 6 6 6 6 6 7 6 6 7 4 5 5 4 4 3 4 4 5 3 5 4 4 5 3 4 3 3 6 4 5
3 8 5 8 10 4 6 1 4 4 6 6 5 6 6 4 6 6 6 6 6 7 5 5 4 3 5 0 2 2 3 3 4 5 7 6 6 7 5 5 5 6 7
3 4 5 7 6 4 3 4 2 3 3 2 4 4 4 6 9 10 7 3 8 7 5 4 5 7 7 9 8 8 4 4 5 4 6 6 7 6 7 6 7 6 7
6 4 3 2 2 2 4 4 2 3 3 3 2 2 8 7 11 10 9 4 2 2 4 3 6 6 11 10 8 6 7 9 9 7 8 6 7 5 6 7 6 6 8
5 4 4 3 3 5 4 3 3 2 2 1 5 9 8 7 12 12 8 4 4 1 8 7 6 8 7 7 6 6 5 6 6 3 4 6 6 5 3 6 8 8 8
6 6 3 4 6 5 3 4 4 4 8 7 7 9 8 7 13 11 7 2 7 6 6 6 8 6 7 9 5 7 7 7 8 9 9 10 11 10 8 3 5 6 7
7 4 5 6 5 5 4 5 6 9 7 5 6 8 9 7 13 16 12 4 4 2 9 6 11 7 6 8 6 6 5 7 8 9 8 8 7 4 6 2 3 3 4
7 8 5 4 6 6 5 4 5 9 7 6 6 6 7 6 9 15 16 8 5 4 5 6 4 7 8 6 3 4 3 5 8 7 8 5 4 3 4 2 2 2 4
7 7 6 6 2 5 4 4 6 7 7 6 6 6 6 6 11 11 12 10 11 6 6 6 5 11 10 8 5 5 8 5 5 6 3 4 4 6 6 6 6 6 5
7 8 7 6 4 3 4 3 3 4 6 6 6 6 6 4 6 10 10 10 11 6 6 7 10 11 9 8 2 8 7 4 5 5 7 6 6 6 7 7 8 9 9
5 5 4 5 7 10 6 6 7 7 7 2 3 4 7 4 6 6 6 6 9 7 10 7 9 10 8 7 7 7 6 6 6 6 7 6 7 7 6 5 5 8 7
5 4 4 3 2 7 8 8 7 8 6 5 5 7 6 6 4 3 3 5 6 6 9 3 5 6 8 8 8 9 8 9 10 9 9 9 8 9 7 8 7 5 4
3 4 5 5 5 5 6 5 13 10 10 9 10 9 7 8 3 5 7 7 9 8 3 1 4 4 5 4 4 5 6 9 7 6 7 7 7 8 9 10 9 10 10
2 4 3 3 2 8 7 5 4 3 7 9 10 10 10 5 1 5 8 7 11 3 3 4 4 4 4 4 4 6 6 5 5 5 4 4 5 6 9 9 10 10 9
2 2 3 3 2 2 0 3 7 7 5 3 2 3 1 4 6 8 8 6 4 4 5 5 5 5 6 5 6 6 6 6 7 5 6 7 8 7 7 8 7 8 9
5 2 4 1 5 3 3 1 5 2 7 8 6 3 5 8 7 9 12 4 5 6 5 6 6 6 6 6 6 6 6 6 6 7 8 8 8 8 8 7 8 12 13
3 3 3 3 4 3 3 4 3 3 1 5 7 5 6 4 4 4 4 5 5 6 5 6 5 5 5 5 5 5 5 7 7 7 7 7 8 8 9 9 9 10 10
2 4 1 3 2 3 3 3 3 4 5 4 7 3 2 4 3 4 5 4 5 5 4 4 4 4 4 5 5 5 6 6 6 7 7 8 8 7 8 8 10 12 12
5 6 5 4 4 3 0 3 2 2 3 8 7 3 4 4 4 5 3 4 4 3 4 3 3 4 4 5 5 6 6 6 7 7 8 8 8 8 8 8 9 9 11
7 6 5 5 6 5 3 3 4 3 2 1 9 7 6 5 6 6 3 4 3 3 3 3 4 4 4 5 4 5 6 7 8 8 8 8 8 8 9 9 9 10 10
10 9 8 8 6 6 6 6 5 2 2 6 4 4 5 4 4 6 3 5 2 3 4 4 4 3 4 4 4 6 6 6 6 8 11 10 9 11 10 10 10 13 11
11 10 9 8 7 6 5 6 6 6 3 3 5 5 5 4 4 5 4 4 3 2 2 1 0 4 5 6 6 6 5 7 7 7 6 9 12 16 12 9 11 11 14
12 8 2 5 8 8 7 7 6 7 7 7 5 4 3 4 3 3 4 4 2 1 1 1 2 1 2 3 3 4 4 7 7 6 7 8 9 9 9 11 15 10 13
Wind_Direction
169 173 181 189 173 181 178 192 207 204 143 151 204 202 195 196 205 213 273 323 257 255 258 279 291 296 302 331 345 335 349 40 15 323 330 324 335 329 295 276 272 287 290
193 179 178 189 172 175 192 174 201 173 183 192 200 222 237 228 203 206 231 253 203 224 262 277 284 301 306 297 299 322 335 339 353 318 303 305 285 286 261 244 271 290 301
195 170 188 200 172 175 169 180 180 165 160 214 225 212 218 250 209 208 265 260 265 227 242 255 264 267 269 282 331 335 327 351 330 316 295 293 279 289 347 5 290 278 338
41 67 278 189 185 189 194 178 167 168 185 182 212 227 230 218 222 221 219 246 278 272 256 242 254 292 295 260 276 289 300 304 288 290 283 286 313 12 358 344 346 9 346
130 120 67 47 326 301 320 24 179 187 182 183 210 222 221 253 25 333 259 222 225 256 276 285 226 289 305 164 277 310 349 325 333 326 330 332 334 351 349 340 336 340 331
87 58 76 118 194 275 272 272 227 292 205 246 246 266 297 83 9 1 337 279 246 226 244 294 304 255 233 237 246 259 271 286 289 288 291 303 308 331 326 336 322 322 316
136 141 87 37 131 334 331 306 309 275 247 220 214 3 72 46 349 350 336 299 314 23 350 314 298 50 31 5 347 265 273 260 228 261 278 283 299 305 316 316 318 314 298
162 139 127 119 86 50 317 327 345 296 262 266 66 81 72 37 356 342 323 287 288 19 41 358 23 58 30 6 351 336 315 310 11 307 271 291 285 313 270 276 283 282 280
144 126 143 133 115 106 91 69 60 46 68 49 82 84 74 34 359 357 334 22 75 87 72 36 72 58 18 10 359 357 342 43 349 320 331 295 274 268 257 298 295 336 313
52 73 79 96 114 101 106 77 70 90 89 90 69 85 81 58 15 19 17 357 79 124 121 92 57 58 43 27 6 346 360 3 342 329 316 301 301 297 286 200 298 322 318
57 52 68 108 120 143 139 113 98 94 99 97 105 85 74 75 38 34 26 43 15 354 75 98 65 34 19 10 9 320 335 311 307 295 281 284 299 326 10 8 291 265 294
36 45 38 67 72 73 65 106 136 133 132 146 141 134 115 84 51 35 29 25 13 33 34 40 6 343 323 314 311 282 305 306 281 292 346 345 12 11 0 341 325 309 289
55 36 24 33 99 77 84 100 119 184 163 173 182 157 141 145 67 43 18 7 20 3 18 340 300 290 291 294 273 279 283 307 317 4 13 17 355 350 345 351 348 353 349
100 83 26 13 14 24 20 356 51 27 3 337 75 89 110 108 58 22 8 352 20 10 359 323 298 288 294 276 323 352 35 23 18 25 11 353 350 355 346 349 359 347 333
146 165 198 186 91 86 64 23 79 53 18 8 17 54 24 73 58 19 352 352 1 340 319 263 33 29 31 24 15 16 27 27 21 7 6 355 357 356 347 349 335 307 331
156 191 181 178 164 137 119 91 63 67 32 38 43 61 72 85 59 352 321 308 292 301 262 99 66 51 56 34 30 8 17 32 14 1 1 360 351 345 344 339 349 351 346
10 30 88 328 196 154 145 145 125 80 54 33 43 61 63 96 337 294 293 304 284 206 246 69 66 52 47 45 25 28 16 13 348 26 337 308 322 4 358 341 352 347 346
73 83 322 249 63 345 322 177 152 164 163 111 343 306 202 250 264 269 275 306 283 171 51 53 42 40 42 25 28 13 11 353 5 353 354 358 359 2 358 348 336 330 323
155 205 234 169 81 35 338 318 272 127 122 132 143 249 230 261 292 305 320 37 56 62 53 64 43 31 38 27 22 17 353 2 7 3 8 2 2 359 347 338 331 332 328
107 53 9 332 108 161 224 250 231 121 141 175 169 145 174 174 219 119 63 39 54 62 45 67 53 49 41 32 18 7 2 10 6 5 358 358 3 358 351 339 333 322 318
189 134 255 332 274 230 211 212 198 177 192 138 95 77 60 301 107 85 97 79 63 76 61 50 58 55 47 37 17 7 12 4 8 2 2 359 356 341 336 333 337 333 325
211 171 189 216 226 207 183 314 337 264 228 126 120 144 222 271 111 107 105 103 107 96 87 88 68 58 47 33 17 13 4 357 6 6 354 346 340 329 326 331 325 317 316
213 208 168 217 250 140 162 207 228 226 175 117 146 162 202 219 130 119 134 97 92 102 99 73 67 50 48 25 9 9 3 4 13 357 336 328 320 316 319 313 315 313 314
222 212 202 187 218 180 193 208 240 206 251 161 208 189 169 150 166 121 157 123 88 59 50 45 38 21 29 9 9 359 28 31 354 335 333 321 310 308 307 305 303 300 295
241 221 218 206 203 203 199 233 223 175 200 251 186 186 183 176 173 137 131 124 136 79 87 162 309 34 28 13 341 333 59 349 321 318 298 304 298 296 291 287 284 284 287
224 238 260 217 209 195 190 240 215 183 193 213 191 179 181 156 166 154 136 126 138 128 61 52 32 0 319 304 10 52 331 303 299 285 295 286 283 283 280 277 280 279 287